Regional Weather Roundup
Issued by NWS

Home | Current Version | Previous Version | Graphics & Text | Print | Product List | Glossary On
Versions: 1 2 3 4 5 6 7 8 9 10 11 12 13 14 15 16 17 18 19 20 21 22 23 24 25 26 27 28 29 30 31 32 33 34 35 36 37 38 39 40 41 42 43 44 45 46 47 48 49 50
000
ASUS43 KBIS 191010
RWRND

NORTH DAKOTA REGIONAL WEATHER ROUNDUP
NATIONAL WEATHER SERVICE BISMARCK ND
500 AM CDT SAT APR 19 2014

NOTE: "FAIR" INDICATES FEW OR NO CLOUDS BELOW 12,000 FEET WITH NO
SIGNIFICANT WEATHER AND/OR OBSTRUCTIONS TO VISIBILITY.


NDZ001>003-009>011-017-191100-
NORTHWEST NORTH DAKOTA

CITY           SKY/WX    TMP DP  RH WIND       PRES   REMARKS
WILLISTON      CLEAR     37  32  82 S8        29.72S
MINOT          PTCLDY    37  34  89 SW10      29.70R
MINOT AFB      PTCLDY    35  35  99 SW10      29.68S
$$

NDZ018>021-031>035-040>046-191100-
SOUTHWEST NORTH DAKOTA

CITY           SKY/WX    TMP DP  RH WIND       PRES   REMARKS
BISMARCK       PTCLDY    43  37  79 W13       29.80R
DICKINSON      CLEAR     34  28  79 W9        29.79R
GARRISON         N/A     37  34  89 W7        29.73F
HETTINGER ARPT CLEAR     33  27  78 W7        29.85R
$$

NDZ004>008-012>016-024-026-027-054-191100-
NORTHEAST NORTH DAKOTA

CITY           SKY/WX    TMP DP  RH WIND       PRES   REMARKS
GRAND FORKS    MOCLDY    44  35  70 S10       29.72F
GRND FRKS AFB  MOCLDY    46  35  66 S16       29.72S
DEVILS LAKE    PTCLDY    37  30  75 W8        29.69S
$$

NDZ022-023-025-028>030-036>039-047>053-191100-
SOUTHEAST NORTH DAKOTA

CITY           SKY/WX    TMP DP  RH WIND       PRES   REMARKS
FARGO          CLOUDY    50  36  58 S23G36    29.74S
JAMESTOWN      MOCLDY    47  40  76 NW22G33   29.71R
$$




USA.gov is the U.S. government's official web portal to all federal, state and local government web resources and services.